Galesburg, IL

1:10 PM CDT on April 25, 2017 (GMT -0500)
Galesburg Municipal

Weather History for KGBG - June, 2013

Change the Weather History Date:

Monday, June 24, 2013

  Actual Average Record
Temperature  
Mean Temperature 76 °F -  
Max Temperature 85 °F 83 °F 93 °F (1983)
Min Temperature 67 °F 62 °F 48 °F (1972)
Cooling Degree Days 11    
Growing Degree Days 26 (Base 50)    
Moisture  
Dew Point 65 °F    
Average Humidity 81    
Maximum Humidity 93    
Minimum Humidity 58    
Precipitation  
Precipitation 0.15 in - - ()
Sea Level Pressure  
Sea Level Pressure 29.99 in    
Wind  
Wind Speed 7 mph (ESE)    
Max Wind Speed 30 mph    
Max Gust Speed 43 mph    
Visibility 10 miles    
Events Rain , Thunderstorm    
Averages and records for this station are not official NWS values.
T = Trace of Precipitation, MM = Missing Value Source: NWS Daily Summary

Daily Weather History Graph

Daily Weather History Graph

Search for Another Location

Airport or City:

Trip Planner

Search our weather history database for the weather conditions in past years. The results will help you decide how hot, cold, wet, or windy it might be!

Date:

Astronomy

Jun. 24, 2013 Rise Set
Actual Time 5:30 AM CDT 8:37 PM CDT
Civil Twilight 4:57 AM CDT 9:11 PM CDT
Nautical Twilight 4:14 AM CDT 9:54 PM CDT
Astronomical Twilight 3:23 AM CDT 10:44 PM CDT
Moon 9:38 PM CDT (6/24) 6:59 AM CDT (6/24)
Length of Visible Light 16h 14m
Length of Day
15h 06m
Full, 98% of the Moon is Illuminated
Jun 24
Full
Jun 29
Last Quarter
Jul 8
New
Jul 15
First Quarter
Jul 22
Full

Hourly Weather History & Observations

Time (CDT) Temp. Heat Index Dew Point Humidity Pressure Visibility Wind Dir Wind Speed Gust Speed Precip Events Conditions
12:15 AM 68.9 °F - 64.8 °F 87% 29.99 in 10.0 mi SSE 6.9 mph - N/A   Scattered Clouds
12:35 AM 68.9 °F - 64.4 °F 86% 29.98 in 10.0 mi SSE 5.8 mph - N/A Thunderstorm Scattered Clouds
12:55 AM 68.9 °F - 64.9 °F 87% 30.01 in 10.0 mi Calm Calm - 0.01 in Rain , Thunderstorm Thunderstorms and Rain
1:15 AM 68.0 °F - 65.3 °F 91% 29.99 in 10.0 mi SE 3.5 mph - 0.01 in Rain , Thunderstorm Light Thunderstorms and Rain
1:35 AM 68.2 °F - 65.3 °F 90% 29.99 in 10.0 mi SE 3.5 mph - 0.01 in Thunderstorm Scattered Clouds
1:55 AM 68.2 °F - 65.3 °F 90% 29.99 in 10.0 mi SE 4.6 mph - 0.01 in   Scattered Clouds
2:15 AM 68.0 °F - 65.3 °F 91% 29.97 in 10.0 mi SE 3.5 mph - N/A Thunderstorm Scattered Clouds
2:35 AM 68.0 °F - 65.3 °F 91% 29.98 in 10.0 mi Calm Calm - N/A Rain , Thunderstorm Rain
2:55 AM 67.6 °F - 65.3 °F 92% 29.99 in 10.0 mi Calm Calm - N/A Thunderstorm Scattered Clouds
3:15 AM 67.6 °F - 64.9 °F 91% 29.99 in 10.0 mi Calm Calm - N/A Thunderstorm Mostly Cloudy
3:35 AM 67.8 °F - 65.7 °F 93% 30.00 in 10.0 mi NNE 6.9 mph - N/A   Overcast
3:55 AM 67.6 °F - 65.7 °F 93% 30.00 in 10.0 mi East 4.6 mph - N/A   Mostly Cloudy
4:15 AM 67.6 °F - 65.7 °F 93% 30.00 in 10.0 mi East 6.9 mph - N/A   Mostly Cloudy
4:35 AM 68.0 °F - 65.3 °F 91% 30.01 in 10.0 mi East 8.1 mph - N/A   Overcast
4:55 AM 68.7 °F - 64.4 °F 86% 30.01 in 10.0 mi ESE 8.1 mph - N/A   Mostly Cloudy
5:15 AM 68.9 °F - 64.6 °F 86% 30.02 in 10.0 mi East 8.1 mph - N/A   Mostly Cloudy
5:35 AM 68.9 °F - 64.0 °F 84% 30.03 in 10.0 mi ESE 9.2 mph 17.3 mph N/A   Overcast
5:55 AM 68.5 °F - 63.3 °F 83% 30.03 in 10.0 mi ESE 11.5 mph 19.6 mph N/A Thunderstorm Overcast
6:15 AM 68.0 °F - 62.6 °F 83% 30.04 in 10.0 mi ESE 8.1 mph 18.4 mph N/A   Mostly Cloudy
6:35 AM 68.0 °F - 63.9 °F 87% 30.05 in 10.0 mi SE 6.9 mph - N/A   Mostly Cloudy
6:55 AM 68.0 °F - 64.8 °F 89% 30.05 in 10.0 mi ESE 6.9 mph - N/A Rain Rain
7:15 AM 67.6 °F - 65.5 °F 93% 30.07 in 10.0 mi ENE 5.8 mph - N/A   Mostly Cloudy
7:35 AM 67.6 °F - 63.7 °F 87% 30.09 in 10.0 mi NE 15.0 mph - N/A   Overcast
7:55 AM 68.2 °F - 62.6 °F 82% 30.09 in 10.0 mi ENE 12.7 mph 19.6 mph N/A   Overcast
8:15 AM 69.8 °F - 62.2 °F 77% 30.08 in 10.0 mi East 11.5 mph - N/A Thunderstorm Overcast
8:35 AM 69.8 °F - 63.1 °F 79% 30.09 in 10.0 mi ENE 5.8 mph - N/A   Overcast
8:55 AM 70.3 °F - 63.3 °F 78% 30.09 in 10.0 mi East 4.6 mph - N/A   Overcast
9:15 AM 70.2 °F - 63.0 °F 78% 30.13 in 10.0 mi North 13.8 mph 19.6 mph N/A   Overcast
9:35 AM 69.6 °F - 62.8 °F 79% 30.10 in 10.0 mi ENE 6.9 mph - N/A   Overcast
9:55 AM 74.5 °F - 63.5 °F 68% 30.08 in 10.0 mi East 8.1 mph - N/A   Overcast
10:15 AM 75.0 °F - 64.0 °F 69% 30.07 in 10.0 mi ESE 5.8 mph - N/A   Mostly Cloudy
10:35 AM 76.5 °F - 64.6 °F 67% 30.07 in 10.0 mi SE 8.1 mph - N/A   Scattered Clouds
10:55 AM 77.2 °F - 64.4 °F 65% 30.05 in 10.0 mi ESE 10.4 mph - N/A   Clear
11:15 AM 78.4 °F - 64.2 °F 62% 30.03 in 10.0 mi SSE 9.2 mph - N/A   Clear
11:35 AM 79.0 °F - 64.6 °F 61% 30.02 in 10.0 mi SE 9.2 mph - N/A   Clear
11:55 AM 79.7 °F - 64.9 °F 61% 30.01 in 10.0 mi SE 11.5 mph 16.1 mph N/A   Clear
12:15 PM 80.8 °F 82.5 °F 64.9 °F 58% 30.01 in 10.0 mi SSE 11.5 mph 18.4 mph N/A   Clear
12:35 PM 81.7 °F 84.0 °F 66.4 °F 60% 30.01 in 10.0 mi South 11.5 mph 18.4 mph N/A   Clear
12:55 PM 82.6 °F 85.1 °F 67.1 °F 59% 30.01 in 10.0 mi South 15.0 mph - N/A   Clear
1:15 PM 81.5 °F 84.4 °F 68.2 °F 64% 30.00 in 10.0 mi South 10.4 mph - N/A   Mostly Cloudy
1:35 PM 83.5 °F 86.9 °F 68.5 °F 61% 29.99 in 10.0 mi South 10.4 mph 17.3 mph N/A   Scattered Clouds
1:55 PM 84.2 °F 88.4 °F 69.8 °F 62% 29.99 in 10.0 mi South 12.7 mph 17.3 mph N/A   Scattered Clouds
2:15 PM 83.7 °F 87.5 °F 69.4 °F 62% 29.98 in 10.0 mi South 13.8 mph 19.6 mph N/A   Scattered Clouds
2:35 PM 84.7 °F 89.1 °F 70.2 °F 61% 29.98 in 10.0 mi SSE 10.4 mph 20.7 mph N/A   Scattered Clouds
2:55 PM 85.3 °F 89.8 °F 69.8 °F 60% 29.96 in 10.0 mi SSE 12.7 mph - N/A   Clear
3:15 PM 85.1 °F 89.8 °F 70.5 °F 61% 29.98 in 10.0 mi South 11.5 mph - N/A   Scattered Clouds
3:35 PM 83.3 °F 87.6 °F 70.3 °F 65% 29.99 in 10.0 mi SSW 11.5 mph - N/A   Clear
3:55 PM 79.0 °F - 64.4 °F 61% 30.10 in 7.0 mi West 29.9 mph 42.6 mph 0.05 in Rain , Thunderstorm Heavy Thunderstorms and Rain
4:15 PM 67.5 °F - 63.7 °F 88% 30.05 in 7.0 mi West 15.0 mph 19.6 mph 0.06 in Rain , Thunderstorm Light Thunderstorms and Rain
4:35 PM 67.6 °F - 63.5 °F 87% 30.01 in 10.0 mi NNW 3.5 mph - 0.08 in Rain , Thunderstorm Light Thunderstorms and Rain
4:55 PM 67.5 °F - 64.8 °F 91% 30.01 in 10.0 mi ENE 6.9 mph - 0.08 in Thunderstorm Thunderstorm
5:15 PM 67.3 °F - 64.8 °F 92% 29.99 in 10.0 mi East 5.8 mph - N/A Thunderstorm Clear
5:35 PM 67.1 °F - 64.6 °F 92% 29.95 in 10.0 mi East 6.9 mph - N/A Thunderstorm Thunderstorm
5:55 PM 67.1 °F - 64.4 °F 91% 29.92 in 10.0 mi ESE 11.5 mph 16.1 mph N/A Rain Light Rain
6:15 PM 67.1 °F - 64.4 °F 91% 29.91 in 10.0 mi SE 8.1 mph - N/A Rain Light Rain
6:35 PM 67.6 °F - 63.9 °F 88% 29.92 in 10.0 mi Calm Calm - N/A   Clear
6:55 PM 68.9 °F - 64.6 °F 86% 29.94 in 10.0 mi Calm Calm - N/A   Clear
7:15 PM 69.4 °F - 64.8 °F 85% 29.93 in 10.0 mi Calm Calm - N/A   Clear
7:35 PM 70.0 °F - 64.8 °F 83% 29.92 in 10.0 mi Calm Calm - N/A   Clear
7:55 PM 69.3 °F - 65.3 °F 87% 29.91 in 10.0 mi ESE 3.5 mph - N/A   Clear
8:15 PM 68.9 °F - 64.6 °F 86% 29.89 in 10.0 mi ESE 3.5 mph - N/A   Clear
8:35 PM 68.5 °F - 64.4 °F 87% 29.89 in 10.0 mi Calm Calm - N/A   Clear
8:55 PM 68.4 °F - 64.4 °F 87% 29.89 in 10.0 mi Calm Calm - N/A   Clear
9:15 PM 68.2 °F - 64.6 °F 88% 29.89 in 10.0 mi East 3.5 mph - N/A   Clear
9:35 PM 68.4 °F - 64.8 °F 88% 29.90 in 10.0 mi ESE 5.8 mph - N/A   Clear
9:55 PM 68.9 °F - 64.8 °F 87% 29.92 in 10.0 mi East 4.6 mph - N/A   Clear
10:15 PM 68.7 °F - 64.9 °F 88% 29.93 in 10.0 mi East 4.6 mph - N/A   Clear
10:35 PM 68.5 °F - 65.5 °F 90% 29.92 in 10.0 mi East 5.8 mph - N/A   Clear
10:55 PM 68.5 °F - 65.7 °F 90% 29.92 in 10.0 mi ESE 5.8 mph - N/A   Clear
11:15 PM 68.4 °F - 66.0 °F 92% 29.93 in 10.0 mi ESE 6.9 mph - N/A   Clear
11:35 PM 68.2 °F - 65.8 °F 92% 29.94 in 10.0 mi ESE 3.5 mph - N/A   Clear
11:55 PM 68.0 °F - 66.0 °F 93% 29.93 in 10.0 mi ESE 4.6 mph - N/A   Clear